Back to catalog

STARLINK-36435

AliveCommunicationsSSO
NORAD 67568·PAYLOAD·🇺🇸 United States

Launched Jan 25, 2026 from Vandenberg Space Force Base

Loading…

Next Passes (next 24 hours)

TLE

FreshSource: CelesTrak SupGP

Epoch: Sep 14, 2026, 22:43 UTC

1 67568C 26016H   26257.94701389  .00009104  00000+0  28266-3 0  2577
2 67568  97.2840 316.7393 0001002 102.0709 220.7655 15.33428783    10

Track STARLINK-36435 in real time with AllMySat

Download on the App Store